When you browse on this site, cookies collect data to enhance your experience and personalize the content and advertising you see.
Visit our Privacy Policy to learn more. By continuing to use the site, you agree to this use of cookies and data.
  • In Latvia
  • List of Countries
  • For 7 days
  • Water Temperature
  • Satellite Maps
  • Weather Map
  • Weather Widgets
  • user-avatar
    Login

    Hourly Weather Mingachevir

    Today, 24 May, Friday

    Time Temperature Precipitation Wind Pressure Humidity
    00:00 +21°C° 0.1 mm 3 mps 751 mmHg 47%
    01:00 +21°C° 0 mm 3 mps 751 mmHg 47%
    02:00 +21°C° 0 mm 3 mps 751 mmHg 48%
    03:00 +20°C° 0 mm 4 mps 750 mmHg 50%
    04:00 +21°C° 0 mm 3 mps 751 mmHg 52%
    05:00 +21°C° 0 mm 3 mps 751 mmHg 55%
    06:00 +21°C° 0 mm 3 mps 751 mmHg 57%
    07:00 +24°C° 0 mm 3 mps 751 mmHg 51%
    08:00 +25°C° 0 mm 3 mps 751 mmHg 44%
    09:00 +27°C° 0 mm 3 mps 750 mmHg 38%
    10:00 +28°C° 0 mm 3 mps 750 mmHg 37%
    11:00 +29°C° 0 mm 2 mps 750 mmHg 36%
    12:00 +30°C° 0 mm 2 mps 749 mmHg 35%
    13:00 +30°C° 0.2 mm 2 mps 749 mmHg 35%
    14:00 +31°C° 0.2 mm 2 mps 749 mmHg 35%
    15:00 +31°C° 0.2 mm 2 mps 749 mmHg 35%
    16:00 +30°C° 0.5 mm 2 mps 749 mmHg 42%
    17:00 +28°C° 0.5 mm 2 mps 749 mmHg 48%
    18:00 +27°C° 0.5 mm 2 mps 750 mmHg 54%
    19:00 +26°C° 0.6 mm 2 mps 750 mmHg 60%
    20:00 +25°C° 0.6 mm 2 mps 751 mmHg 65%
    21:00 +24°C° 0.6 mm 2 mps 751 mmHg 70%
    22:00 +24°C° 0 mm 3 mps 752 mmHg 73%
    23:00 +22°C° 0 mm 3 mps 752 mmHg 75%

    Tomorrow, 25 May, Saturday

    Time Temperature Precipitation Wind Pressure Humidity
    00:00 +21°C° 0 mm 4 mps 752 mmHg 78%
    01:00 +21°C° 0 mm 3 mps 752 mmHg 79%
    02:00 +20°C° 0 mm 2 mps 752 mmHg 80%
    03:00 +21°C° 0 mm 1 mps 752 mmHg 81%
    04:00 +21°C° 0 mm 1 mps 752 mmHg 79%
    05:00 +22°C° 0 mm 1 mps 752 mmHg 76%
    06:00 +22°C° 0 mm 1 mps 752 mmHg 74%
    07:00 +23°C° 0 mm 1 mps 752 mmHg 70%
    08:00 +25°C° 0 mm 1 mps 751 mmHg 65%
    09:00 +26°C° 0 mm 1 mps 751 mmHg 61%
    10:00 +27°C° 0 mm 1 mps 750 mmHg 56%
    11:00 +29°C° 0 mm 1 mps 750 mmHg 51%
    12:00 +30°C° 0 mm 1 mps 749 mmHg 46%
    13:00 +31°C° 0 mm 2 mps 749 mmHg 45%
    14:00 +31°C° 0 mm 2 mps 748 mmHg 43%
    15:00 +32°C° 0 mm 2 mps 748 mmHg 42%
    16:00 +32°C° 0.1 mm 1 mps 748 mmHg 45%
    17:00 +31°C° 0.1 mm 1 mps 748 mmHg 48%
    18:00 +31°C° 0.1 mm 1 mps 748 mmHg 51%
    19:00 +30°C° 0.1 mm 1 mps 749 mmHg 54%
    20:00 +28°C° 0.1 mm 1 mps 749 mmHg 58%
    21:00 +27°C° 0.1 mm 1 mps 749 mmHg 62%
    22:00 +26°C° 0 mm 2 mps 749 mmHg 61%
    23:00 +26°C° 0 mm 2 mps 749 mmHg 60%

    Day after tomorrow, 26 May, Sunday

    Time Temperature Precipitation Wind Pressure Humidity
    00:00 +25°C° 0 mm 3 mps 749 mmHg 59%
    01:00 +25°C° 0 mm 4 mps 749 mmHg 58%
    02:00 +23°C° 0 mm 5 mps 749 mmHg 57%
    03:00 +23°C° 0 mm 6 mps 749 mmHg 55%
    04:00 +23°C° 0 mm 6 mps 749 mmHg 55%
    05:00 +23°C° 0 mm 6 mps 750 mmHg 55%
    06:00 +23°C° 0 mm 6 mps 750 mmHg 55%
    07:00 +26°C° 0 mm 6 mps 749 mmHg 50%
    08:00 +28°C° 0 mm 6 mps 749 mmHg 44%
    09:00 +30°C° 0 mm 7 mps 749 mmHg 38%
    10:00 +30°C° 0.3 mm 6 mps 749 mmHg 36%
    11:00 +32°C° 0.3 mm 6 mps 749 mmHg 35%
    12:00 +33°C° 0.3 mm 5 mps 749 mmHg 33%
    13:00 +33°C° 1.7 mm 4 mps 748 mmHg 36%
    14:00 +31°C° 1.7 mm 3 mps 748 mmHg 38%
    15:00 +31°C° 1.7 mm 2 mps 748 mmHg 41%
    16:00 +30°C° 0.8 mm 2 mps 748 mmHg 44%
    17:00 +30°C° 0.8 mm 2 mps 748 mmHg 47%
    18:00 +29°C° 0.8 mm 1 mps 748 mmHg 50%
    19:00 +28°C° 0.2 mm 1 mps 749 mmHg 55%
    20:00 +26°C° 0.2 mm 1 mps 750 mmHg 59%
    21:00 +25°C° 0.2 mm 2 mps 750 mmHg 64%
    22:00 +24°C° 0.2 mm 2 mps 751 mmHg 65%
    23:00 +24°C° 0.2 mm 2 mps 751 mmHg 67%

    27 May, Monday

    Time Temperature Precipitation Wind Pressure Humidity
    00:00 +22°C° 0.2 mm 3 mps 751 mmHg 68%
    01:00 +22°C° 0.1 mm 3 mps 751 mmHg 67%
    02:00 +22°C° 0.1 mm 3 mps 752 mmHg 66%
    03:00 +21°C° 0.1 mm 4 mps 752 mmHg 65%
    04:00 +22°C° 0 mm 4 mps 752 mmHg 64%
    05:00 +22°C° 0 mm 5 mps 752 mmHg 62%
    06:00 +22°C° 0 mm 6 mps 753 mmHg 61%
    07:00 +24°C° 0 mm 6 mps 753 mmHg 54%
    08:00 +26°C° 0 mm 6 mps 753 mmHg 48%
    09:00 +28°C° 0 mm 7 mps 753 mmHg 41%
    10:00 +29°C° 0 mm 6 mps 753 mmHg 37%
    11:00 +30°C° 0 mm 5 mps 753 mmHg 33%
    12:00 +32°C° 0 mm 4 mps 752 mmHg 30%
    13:00 +33°C° 0.1 mm 3 mps 752 mmHg 29%
    14:00 +32°C° 0.1 mm 2 mps 752 mmHg 28%
    15:00 +32°C° 0.1 mm 1 mps 752 mmHg 27%
    16:00 +31°C° 0.3 mm 1 mps 753 mmHg 32%
    17:00 +31°C° 0.3 mm 1 mps 753 mmHg 36%
    18:00 +30°C° 0.3 mm 1 mps 753 mmHg 40%
    19:00 +28°C° 0 mm 2 mps 754 mmHg 47%
    20:00 +26°C° 0 mm 4 mps 755 mmHg 55%
    21:00 +23°C° 0 mm 5 mps 756 mmHg 62%
    22:00 +22°C° 0.1 mm 4 mps 756 mmHg 63%
    23:00 +22°C° 0.1 mm 3 mps 756 mmHg 65%

    28 May, Tuesday

    Time Temperature Precipitation Wind Pressure Humidity
    00:00 +21°C° 0.1 mm 2 mps 756 mmHg 67%
    01:00 +21°C° 0 mm 2 mps 756 mmHg 68%
    02:00 +22°C° 0 mm 1 mps 756 mmHg 70%
    03:00 +21°C° 0 mm 1 mps 756 mmHg 71%
    04:00 +22°C° 0.1 mm 1 mps 757 mmHg 69%
    05:00 +22°C° 0.1 mm 1 mps 757 mmHg 67%
    06:00 +20°C° 0.1 mm 0 mps 757 mmHg 65%
    07:00 +24°C° 0.2 mm 1 mps 757 mmHg 60%
    08:00 +25°C° 0.2 mm 1 mps 757 mmHg 55%
    09:00 +26°C° 0.2 mm 1 mps 757 mmHg 50%
    10:00 +27°C° 0.1 mm 2 mps 757 mmHg 48%
    11:00 +28°C° 0.1 mm 3 mps 756 mmHg 45%
    12:00 +29°C° 0.1 mm 4 mps 756 mmHg 43%
    13:00 +30°C° 0 mm 4 mps 756 mmHg 41%
    14:00 +30°C° 0 mm 4 mps 756 mmHg 40%
    15:00 +32°C° 0 mm 4 mps 755 mmHg 39%
    16:00 +30°C° 0 mm 4 mps 755 mmHg 41%
    17:00 +30°C° 0 mm 4 mps 755 mmHg 42%
    18:00 +29°C° 0 mm 4 mps 756 mmHg 44%
    19:00 +28°C° 0 mm 4 mps 756 mmHg 47%
    20:00 +27°C° 0 mm 4 mps 757 mmHg 49%
    21:00 +25°C° 0 mm 4 mps 757 mmHg 52%
    22:00 +25°C° 0 mm 3 mps 757 mmHg 54%
    23:00 +24°C° 0 mm 3 mps 757 mmHg 57%

    29 May, Wednesday

    Time Temperature Precipitation Wind Pressure Humidity
    00:00 +23°C° 0 mm 2 mps 757 mmHg 59%
    01:00 +21°C° 0 mm 2 mps 757 mmHg 62%
    02:00 +21°C° 0 mm 2 mps 757 mmHg 65%
    03:00 +21°C° 0 mm 1 mps 756 mmHg 67%
    04:00 +22°C° 0 mm 1 mps 757 mmHg 66%
    05:00 +20°C° 0 mm 0 mps 757 mmHg 64%
    06:00 +21°C° 0 mm 0 mps 757 mmHg 63%
    07:00 +22°C° 0 mm 0 mps 757 mmHg 57%
    08:00 +24°C° 0 mm 0 mps 756 mmHg 51%
    09:00 +27°C° 0 mm 1 mps 756 mmHg 45%
    10:00 +28°C° 0 mm 1 mps 756 mmHg 42%
    11:00 +29°C° 0 mm 2 mps 755 mmHg 39%
    12:00 +30°C° 0 mm 2 mps 755 mmHg 35%
    13:00 +31°C° 0 mm 3 mps 754 mmHg 34%
    14:00 +31°C° 0 mm 3 mps 754 mmHg 33%
    15:00 +33°C° 0 mm 3 mps 753 mmHg 31%
    16:00 +33°C° 0 mm 3 mps 754 mmHg 33%
    17:00 +31°C° 0 mm 3 mps 754 mmHg 34%
    18:00 +31°C° 0 mm 2 mps 754 mmHg 36%
    19:00 +29°C° 0 mm 3 mps 754 mmHg 38%
    20:00 +28°C° 0 mm 3 mps 755 mmHg 41%
    21:00 +26°C° 0 mm 3 mps 755 mmHg 44%
    22:00 +25°C° 0 mm 3 mps 755 mmHg 47%
    23:00 +24°C° 0 mm 3 mps 755 mmHg 50%
    Show more